sat.trackr.live / text

‹ back to catalog

STARLINK-11674 [DTC]

NORAD 64327 · 2025-124L

PAYLOAD ACTIVE UNKNOWN

§ Identity

Operator
Country
US
Launch date
2025-06-10
Launch site
AFETR
Launch vehicle
Mass (kg)
RCS (m²)

Purposes: comms

External: N2YO · Heavens-Above · Gunter

§ Orbital elements

Epoch: 2026-09-20T19:12:12.272256Z

Period
91.66 min
Inclination
42.9995°
Eccentricity
0.0001642
Mean motion
15.71010290 rev/d
Perigee alt
354.9 km
Apogee alt
357.1 km
Semi-major
6,734.1 km
B*
1.0649e-3
RAAN
292.8425°
Arg perigee
294.4351°
Mean anomaly
65.6346°
Rev number
7,352

§ Raw data

STARLINK-11674 [DTC]1 64327U 25124L   26263.80014204  .00139502  00000+0  10649-2 0  99952 64327  42.9995 292.8425 0001642 294.4351  65.6346 15.71010290 73528

JSON: /api/v1/satellites/64327 · /tle

For live sub-satellite position, see the globe view (requires WebGL).

§ Visibility from observer

Set your observer location to see the next 7 days of passes ≥ 10°. The values pass through the URL so the page stays shareable.

No JS? Fill the form by hand. The geolocation button needs JavaScript.